Hourly Weather Sugot

Today, 27 January, Wednesday

Time Temperature Precipitation Wind Pressure Humidity
00:00 -38°C° 0 mm 5 mps 765 mmHg 98%
01:00 -37°C° 0.3 mm 5 mps 763 mmHg 98%
02:00 -35°C° 0.3 mm 5 mps 762 mmHg 97%
03:00 -33°C° 0.3 mm 4 mps 761 mmHg 97%
04:00 -32°C° 0.5 mm 4 mps 760 mmHg 97%
05:00 -31°C° 0.5 mm 4 mps 759 mmHg 97%
06:00 -27°C° 0 mm 3 mps 757 mmHg 97%
07:00 -26°C° 0.3 mm 3 mps 756 mmHg 97%
08:00 -24°C° 0.3 mm 2 mps 755 mmHg 97%
09:00 -23°C° 0.3 mm 2 mps 755 mmHg 97%
10:00 -20°C° 0.1 mm 2 mps 754 mmHg 96%
11:00 -18°C° 0.1 mm 2 mps 754 mmHg 95%
12:00 -16°C° 0 mm 2 mps 754 mmHg 94%
13:00 -17°C° 0.1 mm 3 mps 754 mmHg 93%
14:00 -16°C° 0.1 mm 3 mps 755 mmHg 91%
15:00 -17°C° 0.1 mm 4 mps 755 mmHg 90%
16:00 -19°C° 0 mm 4 mps 756 mmHg 91%
17:00 -22°C° 0 mm 4 mps 757 mmHg 91%
18:00 -24°C° 0 mm 4 mps 758 mmHg 91%
19:00 -24°C° 0 mm 3 mps 759 mmHg 92%
20:00 -26°C° 0 mm 3 mps 760 mmHg 93%
21:00 -27°C° 0 mm 2 mps 761 mmHg 94%
22:00 -28°C° 0 mm 2 mps 761 mmHg 94%
23:00 -29°C° 0 mm 2 mps 762 mmHg 94%

Tomorrow, 28 January, Thursday

Time Temperature Precipitation Wind Pressure Humidity
00:00 -30°C° 0 mm 2 mps 763 mmHg 95%
01:00 -31°C° 0 mm 2 mps 763 mmHg 95%
02:00 -32°C° 0 mm 2 mps 764 mmHg 95%
03:00 -34°C° 0 mm 2 mps 764 mmHg 95%
04:00 -31°C° 0 mm 1 mps 764 mmHg 94%
05:00 -32°C° 0 mm 1 mps 765 mmHg 93%
06:00 -32°C° 0 mm 1 mps 765 mmHg 93%
07:00 -31°C° 0 mm 1 mps 765 mmHg 91%
08:00 -29°C° 0 mm 0 mps 765 mmHg 90%
09:00 -28°C° 0 mm 0 mps 766 mmHg 88%
10:00 -27°C° 0.1 mm 0 mps 765 mmHg 91%
11:00 -26°C° 0.1 mm 0 mps 765 mmHg 93%
12:00 -25°C° 0.1 mm 1 mps 765 mmHg 96%
13:00 -24°C° 0.1 mm 1 mps 764 mmHg 96%
14:00 -27°C° 0.1 mm 2 mps 763 mmHg 97%
15:00 -26°C° 0.1 mm 2 mps 763 mmHg 97%
16:00 -26°C° 0.3 mm 2 mps 762 mmHg 97%
17:00 -26°C° 0.3 mm 2 mps 762 mmHg 98%
18:00 -27°C° 0.3 mm 3 mps 761 mmHg 98%
19:00 -26°C° 0.3 mm 3 mps 761 mmHg 98%
20:00 -26°C° 0.3 mm 3 mps 760 mmHg 97%
21:00 -25°C° 0.3 mm 3 mps 759 mmHg 97%
22:00 -25°C° 0.4 mm 3 mps 758 mmHg 97%
23:00 -24°C° 0.4 mm 3 mps 757 mmHg 97%

Day after tomorrow, 29 January, Friday

Time Temperature Precipitation Wind Pressure Humidity
00:00 -21°C° 0.4 mm 2 mps 756 mmHg 98%
01:00 -20°C° 0.5 mm 2 mps 755 mmHg 97%
02:00 -19°C° 0.5 mm 2 mps 754 mmHg 97%
03:00 -18°C° 0.5 mm 2 mps 753 mmHg 97%
04:00 -17°C° 0.8 mm 2 mps 753 mmHg 97%
05:00 -15°C° 0.8 mm 2 mps 753 mmHg 97%
06:00 -14°C° 0.8 mm 2 mps 752 mmHg 97%
07:00 -14°C° 0.5 mm 2 mps 752 mmHg 97%
08:00 -15°C° 0.5 mm 2 mps 753 mmHg 97%
09:00 -15°C° 0.5 mm 2 mps 753 mmHg 97%
10:00 -16°C° 0.1 mm 2 mps 753 mmHg 96%
11:00 -16°C° 0.1 mm 2 mps 754 mmHg 96%
12:00 -15°C° 0.1 mm 1 mps 755 mmHg 95%
13:00 -15°C° 0 mm 1 mps 755 mmHg 95%
14:00 -14°C° 0 mm 1 mps 756 mmHg 95%
15:00 -14°C° 0 mm 1 mps 756 mmHg 94%
16:00 -16°C° 0 mm 2 mps 757 mmHg 95%
17:00 -16°C° 0 mm 2 mps 757 mmHg 95%
18:00 -18°C° 0 mm 3 mps 758 mmHg 95%
19:00 -19°C° 0.1 mm 3 mps 759 mmHg 95%
20:00 -21°C° 0.1 mm 3 mps 759 mmHg 94%
21:00 -23°C° 0.1 mm 4 mps 759 mmHg 93%
22:00 -24°C° 0 mm 3 mps 760 mmHg 94%
23:00 -26°C° 0 mm 3 mps 761 mmHg 95%

30 January, Saturday

Time Temperature Precipitation Wind Pressure Humidity
00:00 -29°C° 0 mm 3 mps 762 mmHg 96%
01:00 -30°C° 0 mm 3 mps 763 mmHg 96%
02:00 -30°C° 0 mm 2 mps 763 mmHg 97%
03:00 -31°C° 0 mm 2 mps 764 mmHg 97%
04:00 -34°C° 0 mm 2 mps 765 mmHg 97%
05:00 -35°C° 0 mm 2 mps 766 mmHg 97%
06:00 -36°C° 0 mm 2 mps 767 mmHg 96%
07:00 -37°C° 0 mm 2 mps 767 mmHg 96%
08:00 -38°C° 0 mm 2 mps 768 mmHg 96%
09:00 -39°C° 0 mm 2 mps 768 mmHg 96%
10:00 -38°C° 0 mm 2 mps 769 mmHg 95%
11:00 -36°C° 0 mm 2 mps 770 mmHg 94%
12:00 -32°C° 0 mm 1 mps 770 mmHg 94%
13:00 -31°C° 0 mm 1 mps 771 mmHg 94%
14:00 -31°C° 0 mm 1 mps 771 mmHg 93%
15:00 -30°C° 0 mm 1 mps 771 mmHg 93%
16:00 -32°C° 0 mm 1 mps 772 mmHg 94%
17:00 -33°C° 0 mm 1 mps 772 mmHg 95%
18:00 -35°C° 0 mm 1 mps 773 mmHg 96%
19:00 -35°C° 0 mm 1 mps 773 mmHg 96%
20:00 -35°C° 0 mm 1 mps 774 mmHg 96%
21:00 -36°C° 0 mm 1 mps 774 mmHg 96%
22:00 -35°C° 0 mm 1 mps 774 mmHg 95%
23:00 -35°C° 0 mm 1 mps 774 mmHg 95%

31 January, Sunday

Time Temperature Precipitation Wind Pressure Humidity
00:00 -35°C° 0 mm 1 mps 774 mmHg 95%
01:00 -35°C° 0 mm 1 mps 774 mmHg 95%
02:00 -35°C° 0 mm 1 mps 774 mmHg 95%
03:00 -35°C° 0 mm 1 mps 774 mmHg 95%
04:00 -37°C° 0 mm 2 mps 774 mmHg 95%
05:00 -36°C° 0 mm 2 mps 774 mmHg 94%
06:00 -35°C° 0 mm 2 mps 774 mmHg 94%
07:00 -35°C° 0 mm 2 mps 774 mmHg 94%
08:00 -35°C° 0 mm 2 mps 773 mmHg 94%
09:00 -35°C° 0 mm 2 mps 773 mmHg 94%
10:00 -35°C° 0 mm 3 mps 773 mmHg 94%
11:00 -34°C° 0 mm 3 mps 772 mmHg 94%
12:00 -33°C° 0 mm 3 mps 772 mmHg 93%
13:00 -32°C° 0 mm 3 mps 771 mmHg 93%
14:00 -31°C° 0 mm 3 mps 771 mmHg 93%
15:00 -30°C° 0 mm 3 mps 770 mmHg 93%
16:00 -30°C° 0 mm 3 mps 770 mmHg 93%
17:00 -31°C° 0 mm 3 mps 770 mmHg 93%
18:00 -31°C° 0 mm 3 mps 769 mmHg 93%
19:00 -31°C° 0 mm 3 mps 769 mmHg 93%
20:00 -31°C° 0 mm 3 mps 768 mmHg 93%
21:00 -31°C° 0 mm 3 mps 768 mmHg 93%
22:00 -31°C° 0 mm 3 mps 767 mmHg 93%
23:00 -31°C° 0 mm 3 mps 767 mmHg 93%

1 February, Monday

Time Temperature Precipitation Wind Pressure Humidity
00:00 -29°C° 0 mm 2 mps 766 mmHg 93%
01:00 -29°C° 0 mm 2 mps 766 mmHg 93%
02:00 -29°C° 0 mm 2 mps 766 mmHg 93%
03:00 -29°C° 0 mm 2 mps 765 mmHg 93%
04:00 -29°C° 0 mm 2 mps 765 mmHg 93%
05:00 -28°C° 0 mm 2 mps 765 mmHg 93%
06:00 -28°C° 0 mm 2 mps 765 mmHg 93%
07:00 -28°C° 0 mm 2 mps 765 mmHg 93%
08:00 -28°C° 0 mm 2 mps 764 mmHg 93%
09:00 -27°C° 0 mm 2 mps 764 mmHg 92%
10:00 -27°C° 0 mm 2 mps 764 mmHg 92%
11:00 -26°C° 0 mm 2 mps 764 mmHg 92%
12:00 -22°C° 0 mm 1 mps 764 mmHg 91%
13:00 -21°C° 0 mm 1 mps 764 mmHg 91%
14:00 -21°C° 0 mm 1 mps 764 mmHg 91%
15:00 -20°C° 0 mm 1 mps 764 mmHg 92%
16:00 -21°C° 0 mm 1 mps 764 mmHg 93%
17:00 -21°C° 0 mm 1 mps 764 mmHg 93%
18:00 -22°C° 0 mm 1 mps 764 mmHg 94%
19:00 -22°C° 0 mm 1 mps 764 mmHg 94%
20:00 -22°C° 0 mm 1 mps 764 mmHg 93%
21:00 -22°C° 0 mm 1 mps 764 mmHg 93%
22:00 -23°C° 0 mm 1 mps 764 mmHg 93%
23:00 -23°C° 0 mm 1 mps 764 mmHg 93%
Show more